Location: Kershaw
(34.5481°N, 80.5823°W)
Time: 17:52:30
(UTC+00:00)

Transit 2A - Pass Details

Date: 11 October 2022
Orbit: 598 x 959 km, 66.7° (Epoch: 06 December)

Event Time Altitude Azimuth Distance (km) Brightness Sun altitude
Rises 02:40:58 0° 230° (SW) 2,924 - -46.2°
Reaches altitude 10° 02:43:31 10° 242° (WSW) 1,982 - -46.6°
Maximum altitude 02:47:21 28° 303° (WNW) 1,131 - -47.3°
Drops below altitude 10° 02:51:07 10° 3° (N) 1,939 - -47.9°
Sets 02:53:36 0° 15° (NNE) 2,848 - -48.4°
